Time,TemperatureF,DewpointF,PressureIn,WindDirection,WindDirectionDegrees,WindSpeedMPH,WindSpeedGustMPH,Humidity,HourlyPrecipIn,Conditions,Clouds,dailyrainin,SoftwareType,DateUTC
2013-02-16 00:02:00,16.0,13.0,-100.00,SSE,159,0.0,0.0,86,-99.99,,,-99.99,,2013-02-16 07:02:00,
2013-02-16 00:11:00,16.0,13.0,-100.00,SSE,159,0.0,0.0,86,-99.99,,,-99.99,,2013-02-16 07:11:00,
2013-02-16 00:21:00,16.0,13.0,-100.00,SSE,154,0.0,1.0,89,-99.99,,,-99.99,,2013-02-16 07:21:00,
2013-02-16 00:31:00,16.0,13.0,-100.00,SSE,154,0.0,1.0,89,-99.99,,,-99.99,,2013-02-16 07:31:00,
2013-02-16 00:42:00,16.0,13.0,-100.00,SSE,154,0.0,1.0,89,-99.99,,,-99.99,,2013-02-16 07:42:00,
2013-02-16 01:31:00,16.0,12.0,-100.00,South,182,0.0,2.0,84,-99.99,,,-99.99,,2013-02-16 08:31:00,
2013-02-16 01:41:00,16.0,12.0,-100.00,South,182,0.0,2.0,84,-99.99,,,-99.99,,2013-02-16 08:41:00,
2013-02-16 01:52:00,17.0,12.0,-100.00,SSE,165,1.0,2.0,81,-99.99,,,-99.99,,2013-02-16 08:52:00,
2013-02-16 02:01:00,19.0,13.0,-100.00,South,183,2.0,6.0,78,-99.99,,,-99.99,,2013-02-16 09:01:00,
2013-02-16 02:11:00,19.0,13.0,-100.00,South,183,2.0,6.0,78,-99.99,,,-99.99,,2013-02-16 09:11:00,
2013-02-16 02:21:00,19.0,13.0,-100.00,SSE,149,1.0,1.0,76,-99.99,,,-99.99,,2013-02-16 09:21:00,
2013-02-16 02:31:00,19.0,13.0,-100.00,SSE,149,1.0,1.0,76,-99.99,,,-99.99,,2013-02-16 09:31:00,
2013-02-16 02:42:00,19.0,13.0,-100.00,SSE,149,1.0,1.0,76,-99.99,,,-99.99,,2013-02-16 09:42:00,
2013-02-16 02:52:00,20.0,14.0,-100.00,South,176,1.0,3.0,76,-99.99,,,-99.99,,2013-02-16 09:52:00,
2013-02-16 03:01:00,20.0,14.0,-100.00,South,178,1.0,3.0,77,-99.99,,,-99.99,,2013-02-16 10:01:00,
2013-02-16 03:11:00,20.0,14.0,-100.00,South,178,1.0,3.0,77,-99.99,,,-99.99,,2013-02-16 10:11:00,
2013-02-16 03:21:00,21.0,14.0,-100.00,South,169,0.0,1.0,74,-99.99,,,-99.99,,2013-02-16 10:21:00,
2013-02-16 03:31:00,20.0,14.0,-100.00,SSW,207,1.0,3.0,77,-99.99,,,-99.99,,2013-02-16 10:31:00,
2013-02-16 03:41:00,20.0,14.0,-100.00,SSW,207,1.0,3.0,77,-99.99,,,-99.99,,2013-02-16 10:41:00,
2013-02-16 03:51:00,20.0,14.0,-100.00,SE,135,2.0,4.0,76,-99.99,,,-99.99,,2013-02-16 10:51:00,
2013-02-16 04:02:00,20.0,14.0,-100.00,ESE,116,1.0,3.0,77,-99.99,,,-99.99,,2013-02-16 11:02:00,
2013-02-16 04:11:00,20.0,14.0,-100.00,ESE,116,1.0,3.0,77,-99.99,,,-99.99,,2013-02-16 11:11:00,
2013-02-16 04:22:00,20.0,14.0,-100.00,SE,132,0.0,1.0,77,-99.99,,,-99.99,,2013-02-16 11:22:00,
2013-02-16 04:31:00,19.0,14.0,-100.00,SSW,196,0.0,1.0,79,-99.99,,,-99.99,,2013-02-16 11:31:00,
2013-02-16 04:42:00,19.0,14.0,-100.00,SSW,196,0.0,1.0,79,-99.99,,,-99.99,,2013-02-16 11:42:00,
2013-02-16 04:52:00,19.0,13.0,-100.00,SSW,192,1.0,2.0,78,-99.99,,,-99.99,,2013-02-16 11:52:00,
2013-02-16 05:01:00,20.0,14.0,-100.00,SSE,163,0.0,1.0,77,-99.99,,,-99.99,,2013-02-16 12:01:00,
2013-02-16 05:12:00,20.0,14.0,-100.00,SSE,163,0.0,1.0,77,-99.99,,,-99.99,,2013-02-16 12:12:00,
2013-02-16 05:22:00,19.0,14.0,-100.00,SW,222,0.0,0.0,79,-99.99,,,-99.99,,2013-02-16 12:22:00,
2013-02-16 05:32:00,19.0,13.0,-100.00,SSE,159,0.0,2.0,78,-99.99,,,-99.99,,2013-02-16 12:32:00,
2013-02-16 05:42:00,19.0,13.0,-100.00,SSE,159,0.0,2.0,78,-99.99,,,-99.99,,2013-02-16 12:42:00,
2013-02-16 05:52:00,19.0,13.0,-100.00,South,185,0.0,2.0,78,-99.99,,,-99.99,,2013-02-16 12:52:00,
2013-02-16 06:01:00,19.0,13.0,-100.00,NNW,345,0.0,2.0,77,-99.99,,,-99.99,,2013-02-16 13:01:00,
2013-02-16 06:11:00,19.0,13.0,-100.00,NNW,345,0.0,2.0,77,-99.99,,,-99.99,,2013-02-16 13:11:00,
2013-02-16 06:21:00,20.0,13.0,-100.00,South,169,1.0,2.0,75,-99.99,,,-99.99,,2013-02-16 13:21:00,
2013-02-16 06:31:00,20.0,13.0,-100.00,South,169,1.0,2.0,75,-99.99,,,-99.99,,2013-02-16 13:31:00,
2013-02-16 06:41:00,20.0,13.0,-100.00,South,169,1.0,2.0,75,-99.99,,,-99.99,,2013-02-16 13:41:00,
2013-02-16 07:01:00,19.0,12.0,-100.00,SSW,197,1.0,2.0,73,-99.99,,,-99.99,,2013-02-16 14:01:00,
2013-02-16 07:11:00,19.0,12.0,-100.00,SSW,197,1.0,2.0,73,-99.99,,,-99.99,,2013-02-16 14:11:00,
2013-02-16 07:21:00,19.0,12.0,-100.00,ESE,123,1.0,2.0,75,-99.99,,,-99.99,,2013-02-16 14:21:00,
2013-02-16 07:32:00,19.0,12.0,-100.00,South,177,0.0,1.0,74,-99.99,,,-99.99,,2013-02-16 14:32:00,
2013-02-16 07:41:00,19.0,12.0,-100.00,South,177,0.0,1.0,74,-99.99,,,-99.99,,2013-02-16 14:41:00,
2013-02-16 07:52:00,19.0,12.0,-100.00,SSW,209,0.0,1.0,74,-99.99,,,-99.99,,2013-02-16 14:52:00,
2013-02-16 08:01:00,24.0,11.0,-100.00,South,182,1.0,2.0,57,-99.99,,,-99.99,,2013-02-16 15:01:00,
2013-02-16 08:11:00,24.0,11.0,-100.00,South,182,1.0,2.0,57,-99.99,,,-99.99,,2013-02-16 15:11:00,
2013-02-16 08:21:00,24.0,11.0,-100.00,South,178,2.0,4.0,56,-99.99,,,-99.99,,2013-02-16 15:21:00,
2013-02-16 08:31:00,25.0,12.0,-100.00,South,178,2.0,4.0,56,-99.99,,,-99.99,,2013-02-16 15:31:00,
2013-02-16 08:41:00,25.0,12.0,-100.00,South,178,2.0,4.0,56,-99.99,,,-99.99,,2013-02-16 15:41:00,
2013-02-16 08:51:00,23.0,12.0,-100.00,SSW,192,1.0,2.0,62,-99.99,,,-99.99,,2013-02-16 15:51:00,
2013-02-16 09:01:00,23.0,12.0,-100.00,South,190,1.0,3.0,63,-99.99,,,-99.99,,2013-02-16 16:01:00,
2013-02-16 09:11:00,23.0,12.0,-100.00,South,190,1.0,3.0,63,-99.99,,,-99.99,,2013-02-16 16:11:00,
2013-02-16 09:21:00,23.0,13.0,-100.00,South,169,0.0,1.0,66,-99.99,,,-99.99,,2013-02-16 16:21:00,
2013-02-16 09:32:00,24.0,11.0,-100.00,South,177,1.0,3.0,57,-99.99,,,-99.99,,2013-02-16 16:32:00,
2013-02-16 09:41:00,24.0,11.0,-100.00,South,177,1.0,3.0,57,-99.99,,,-99.99,,2013-02-16 16:41:00,
2013-02-16 09:51:00,26.0,10.0,-100.00,South,180,2.0,3.0,51,-99.99,,,-99.99,,2013-02-16 16:51:00,
2013-02-16 10:01:00,28.0,11.0,-100.00,South,186,2.0,3.0,49,-99.99,,,-99.99,,2013-02-16 17:01:00,
2013-02-16 10:11:00,28.0,11.0,-100.00,South,186,2.0,3.0,49,-99.99,,,-99.99,,2013-02-16 17:11:00,
2013-02-16 10:21:00,28.0,11.0,-100.00,South,183,1.0,2.0,48,-99.99,,,-99.99,,2013-02-16 17:21:00,
2013-02-16 10:31:00,28.0,12.0,-100.00,South,183,1.0,2.0,51,-99.99,,,-99.99,,2013-02-16 17:31:00,
2013-02-16 10:41:00,28.0,12.0,-100.00,South,183,1.0,2.0,51,-99.99,,,-99.99,,2013-02-16 17:41:00,
2013-02-16 10:52:00,33.0,11.0,-100.00,South,189,1.0,3.0,40,-99.99,,,-99.99,,2013-02-16 17:52:00,
2013-02-16 11:01:00,33.0,11.0,-100.00,South,189,1.0,3.0,40,-99.99,,,-99.99,,2013-02-16 18:01:00,
2013-02-16 11:11:00,33.0,11.0,-100.00,South,189,1.0,3.0,40,-99.99,,,-99.99,,2013-02-16 18:11:00,
2013-02-16 11:21:00,34.0,13.0,-100.00,SSW,211,2.0,4.0,41,-99.99,,,-99.99,,2013-02-16 18:21:00,
2013-02-16 11:33:00,34.0,13.0,-100.00,SSW,194,2.0,5.0,42,-99.99,,,-99.99,,2013-02-16 18:33:00,
2013-02-16 11:42:00,34.0,13.0,-100.00,SSW,194,2.0,5.0,42,-99.99,,,-99.99,,2013-02-16 18:42:00,
2013-02-16 11:51:00,34.0,13.0,-100.00,South,173,2.0,3.0,42,-99.99,,,-99.99,,2013-02-16 18:51:00,
2013-02-16 12:02:00,35.0,14.0,-100.00,South,190,2.0,4.0,42,-99.99,,,-99.99,,2013-02-16 19:02:00,
2013-02-16 12:11:00,35.0,14.0,-100.00,South,190,2.0,4.0,42,-99.99,,,-99.99,,2013-02-16 19:11:00,
2013-02-16 12:21:00,39.0,15.0,-100.00,SSE,150,0.0,2.0,37,-99.99,,,-99.99,,2013-02-16 19:21:00,
2013-02-16 12:31:00,39.0,15.0,-100.00,West,265,1.0,3.0,37,-99.99,,,-99.99,,2013-02-16 19:31:00,
2013-02-16 12:42:00,39.0,15.0,-100.00,West,265,1.0,3.0,37,-99.99,,,-99.99,,2013-02-16 19:42:00,
2013-02-16 12:52:00,41.0,16.0,-100.00,SSW,193,1.0,2.0,36,-99.99,,,-99.99,,2013-02-16 19:52:00,
2013-02-16 13:01:00,41.0,15.0,-100.00,SSE,161,1.0,2.0,35,-99.99,,,-99.99,,2013-02-16 20:01:00,
2013-02-16 13:11:00,41.0,15.0,-100.00,SSE,161,1.0,2.0,35,-99.99,,,-99.99,,2013-02-16 20:11:00,
2013-02-16 13:21:00,39.0,14.0,-100.00,SW,217,3.0,5.0,35,-99.99,,,-99.99,,2013-02-16 20:21:00,
2013-02-16 13:32:00,39.0,15.0,-100.00,SSW,212,2.0,4.0,37,-99.99,,,-99.99,,2013-02-16 20:32:00,
2013-02-16 13:42:00,39.0,15.0,-100.00,SSW,212,2.0,4.0,37,-99.99,,,-99.99,,2013-02-16 20:42:00,
2013-02-16 13:52:00,41.0,15.0,-100.00,SE,130,1.0,2.0,35,-99.99,,,-99.99,,2013-02-16 20:52:00,
2013-02-16 14:02:00,40.0,18.0,-100.00,NNE,24,1.0,3.0,41,-99.99,,,-99.99,,2013-02-16 21:02:00,
2013-02-16 14:11:00,40.0,18.0,-100.00,NNE,24,1.0,3.0,41,-99.99,,,-99.99,,2013-02-16 21:11:00,
2013-02-16 14:21:00,41.0,17.0,-100.00,East,81,1.0,2.0,37,-99.99,,,-99.99,,2013-02-16 21:21:00,
2013-02-16 14:31:00,42.0,19.0,-100.00,North,2,1.0,3.0,39,-99.99,,,-99.99,,2013-02-16 21:31:00,
2013-02-16 14:41:00,42.0,19.0,-100.00,North,2,1.0,3.0,39,-99.99,,,-99.99,,2013-02-16 21:41:00,
2013-02-16 14:52:00,40.0,15.0,-100.00,SSW,202,2.0,6.0,36,-99.99,,,-99.99,,2013-02-16 21:52:00,
2013-02-16 15:01:00,39.0,16.0,-100.00,SSW,204,2.0,3.0,38,-99.99,,,-99.99,,2013-02-16 22:01:00,
2013-02-16 15:11:00,39.0,16.0,-100.00,SSW,204,2.0,3.0,38,-99.99,,,-99.99,,2013-02-16 22:11:00,
2013-02-16 15:21:00,38.0,15.0,-100.00,SSW,201,1.0,2.0,38,-99.99,,,-99.99,,2013-02-16 22:21:00,
2013-02-16 15:31:00,38.0,16.0,-100.00,SSW,194,2.0,4.0,41,-99.99,,,-99.99,,2013-02-16 22:31:00,
2013-02-16 15:42:00,38.0,16.0,-100.00,SSW,194,2.0,4.0,41,-99.99,,,-99.99,,2013-02-16 22:42:00,
2013-02-16 15:51:00,37.0,16.0,-100.00,SW,224,1.0,3.0,42,-99.99,,,-99.99,,2013-02-16 22:51:00,
2013-02-16 16:02:00,36.0,16.0,-100.00,SW,233,2.0,3.0,44,-99.99,,,-99.99,,2013-02-16 23:02:00,
2013-02-16 16:11:00,36.0,16.0,-100.00,SW,233,2.0,3.0,44,-99.99,,,-99.99,,2013-02-16 23:11:00,
2013-02-16 16:21:00,35.0,16.0,-100.00,SW,222,2.0,3.0,45,-99.99,,,-99.99,,2013-02-16 23:21:00,
2013-02-16 16:31:00,34.0,14.0,-100.00,WSW,237,1.0,2.0,44,-99.99,,,-99.99,,2013-02-16 23:31:00,
2013-02-16 16:42:00,34.0,14.0,-100.00,WSW,237,1.0,2.0,44,-99.99,,,-99.99,,2013-02-16 23:42:00,
2013-02-16 16:52:00,34.0,15.0,-100.00,SW,230,1.0,2.0,46,-99.99,,,-99.99,,2013-02-16 23:52:00,
2013-02-16 17:02:00,34.0,17.0,-100.00,SW,230,1.0,1.0,49,-99.99,,,-99.99,,2013-02-17 00:02:00,
2013-02-16 17:11:00,34.0,17.0,-100.00,SW,230,1.0,1.0,49,-99.99,,,-99.99,,2013-02-17 00:11:00,
2013-02-16 17:21:00,31.0,17.0,-100.00,SW,214,1.0,1.0,55,-99.99,,,-99.99,,2013-02-17 00:21:00,
2013-02-16 17:31:00,29.0,16.0,-100.00,SSW,209,0.0,1.0,58,-99.99,,,-99.99,,2013-02-17 00:31:00,
2013-02-16 17:41:00,29.0,16.0,-100.00,SSW,209,0.0,1.0,58,-99.99,,,-99.99,,2013-02-17 00:41:00,
2013-02-16 17:51:00,29.0,16.0,-100.00,SW,224,0.0,1.0,59,-99.99,,,-99.99,,2013-02-17 00:51:00,
2013-02-16 18:01:00,29.0,15.0,-100.00,WSW,240,1.0,2.0,56,-99.99,,,-99.99,,2013-02-17 01:01:00,
2013-02-16 18:11:00,29.0,15.0,-100.00,WSW,240,1.0,2.0,56,-99.99,,,-99.99,,2013-02-17 01:11:00,
2013-02-16 18:21:00,29.0,15.0,-100.00,WSW,243,1.0,2.0,56,-99.99,,,-99.99,,2013-02-17 01:21:00,
2013-02-16 18:31:00,29.0,15.0,-100.00,WSW,243,1.0,2.0,56,-99.99,,,-99.99,,2013-02-17 01:31:00,
2013-02-16 18:41:00,29.0,15.0,-100.00,WSW,243,1.0,2.0,56,-99.99,,,-99.99,,2013-02-17 01:41:00,
2013-02-16 18:52:00,30.0,14.0,-100.00,SW,221,2.0,4.0,50,-99.99,,,-99.99,,2013-02-17 01:52:00,
2013-02-16 19:01:00,30.0,14.0,-100.00,SW,227,2.0,4.0,50,-99.99,,,-99.99,,2013-02-17 02:01:00,
2013-02-16 19:11:00,30.0,14.0,-100.00,SW,227,2.0,4.0,50,-99.99,,,-99.99,,2013-02-17 02:11:00,
2013-02-16 19:21:00,30.0,12.0,-100.00,SSW,205,2.0,4.0,47,-99.99,,,-99.99,,2013-02-17 02:21:00,
2013-02-16 19:31:00,29.0,11.0,-100.00,SSW,204,2.0,4.0,46,-99.99,,,-99.99,,2013-02-17 02:31:00,
2013-02-16 19:41:00,29.0,11.0,-100.00,SSW,204,2.0,4.0,46,-99.99,,,-99.99,,2013-02-17 02:41:00,
2013-02-16 19:52:00,30.0,10.0,-100.00,SSW,207,3.0,4.0,42,-99.99,,,-99.99,,2013-02-17 02:52:00,
2013-02-16 20:01:00,29.0,10.0,-100.00,SSW,203,3.0,4.0,44,-99.99,,,-99.99,,2013-02-17 03:01:00,
2013-02-16 20:11:00,29.0,10.0,-100.00,SSW,203,3.0,4.0,44,-99.99,,,-99.99,,2013-02-17 03:11:00,
2013-02-16 20:21:00,28.0,10.0,-100.00,SW,222,2.0,4.0,47,-99.99,,,-99.99,,2013-02-17 03:21:00,
2013-02-16 20:31:00,28.0,9.0,-100.00,SW,224,2.0,3.0,45,-99.99,,,-99.99,,2013-02-17 03:31:00,
2013-02-16 20:42:00,28.0,9.0,-100.00,SW,224,2.0,3.0,45,-99.99,,,-99.99,,2013-02-17 03:42:00,
2013-02-16 20:51:00,29.0,8.0,-100.00,SW,221,2.0,4.0,40,-99.99,,,-99.99,,2013-02-17 03:51:00,
2013-02-16 21:01:00,29.0,8.0,-100.00,SW,231,2.0,3.0,40,-99.99,,,-99.99,,2013-02-17 04:01:00,
2013-02-16 21:11:00,29.0,8.0,-100.00,SW,231,2.0,3.0,40,-99.99,,,-99.99,,2013-02-17 04:11:00,
2013-02-16 21:21:00,28.0,9.0,-100.00,SW,233,2.0,3.0,44,-99.99,,,-99.99,,2013-02-17 04:21:00,
2013-02-16 21:31:00,28.0,9.0,-100.00,SW,233,2.0,3.0,44,-99.99,,,-99.99,,2013-02-17 04:31:00,
2013-02-16 21:41:00,28.0,9.0,-100.00,SW,233,2.0,3.0,44,-99.99,,,-99.99,,2013-02-17 04:41:00,
2013-02-16 21:51:00,28.0,6.0,-100.00,SW,229,2.0,3.0,39,-99.99,,,-99.99,,2013-02-17 04:51:00,
2013-02-16 22:01:00,28.0,6.0,-100.00,SW,225,2.0,3.0,39,-99.99,,,-99.99,,2013-02-17 05:01:00,
2013-02-16 22:11:00,28.0,6.0,-100.00,SW,225,2.0,3.0,39,-99.99,,,-99.99,,2013-02-17 05:11:00,
2013-02-16 22:22:00,27.0,6.0,-100.00,SW,222,2.0,3.0,40,-99.99,,,-99.99,,2013-02-17 05:22:00,
2013-02-16 22:32:00,27.0,6.0,-100.00,SSW,206,2.0,3.0,40,-99.99,,,-99.99,,2013-02-17 05:32:00,
2013-02-16 22:42:00,27.0,6.0,-100.00,SSW,206,2.0,3.0,40,-99.99,,,-99.99,,2013-02-17 05:42:00,
2013-02-16 22:52:00,26.0,7.0,-100.00,SSW,209,2.0,3.0,43,-99.99,,,-99.99,,2013-02-17 05:52:00,
2013-02-16 23:02:00,26.0,7.0,-100.00,SW,220,2.0,3.0,44,-99.99,,,-99.99,,2013-02-17 06:02:00,
2013-02-16 23:11:00,26.0,7.0,-100.00,SW,220,2.0,3.0,44,-99.99,,,-99.99,,2013-02-17 06:11:00,
2013-02-16 23:21:00,26.0,6.0,-100.00,SSW,209,2.0,2.0,42,-99.99,,,-99.99,,2013-02-17 06:21:00,
2013-02-16 23:31:00,25.0,7.0,-100.00,South,189,1.0,3.0,45,-99.99,,,-99.99,,2013-02-17 06:31:00,
2013-02-16 23:41:00,25.0,7.0,-100.00,South,189,1.0,3.0,45,-99.99,,,-99.99,,2013-02-17 06:41:00,
2013-02-16 23:51:00,25.0,4.0,-100.00,SSW,206,1.0,2.0,39,-99.99,,,-99.99,,2013-02-17 06:51:00,